Regional Weather Roundup
Issued by NWS

Home | Current Version | Previous Version | Graphics & Text | Print | Product List | Glossary On
Versions: 1 2 3 4 5 6 7 8 9 10 11 12 13 14 15 16 17 18 19 20 21 22 23 24 25 26 27 28 29 30 31 32 33 34 35 36 37 38 39 40 41 42 43 44 45 46 47 48 49 50
000
ASUS43 KLOT 071808
RWRIL

ILLINOIS REGIONAL WEATHER ROUNDUP
NATIONAL WEATHER SERVICE CHICAGO/ROMEOVILLE IL
1200 PM CST SUN FEB 07 2016

NOTE: "FAIR" INDICATES FEW OR NO CLOUDS BELOW 12,000 FEET WITH NO
SIGNIFICANT WEATHER AND/OR OBSTRUCTIONS TO VISIBILITY.

* THESE STATIONS ARE NOT UNDER NWS QUALITY CONTROL. THEY ALSO MAY NOT
  REPORT WEATHER SUCH AS PRECIPITATION OR FOG.

ILZ001-002-007-009-015-016-024-071900-
NORTHWEST ILLINOIS

CITY           SKY/WX    TMP DP  RH WIND       PRES   REMARKS
MOLINE         SUNNY     45  30  55 W16G24    29.81S
6HR MIN TEMP:  37; 6HR MAX TEMP:  46;

STERLING*      CLOUDY    43  32  65 W16       29.75F
SAVANNA*       SUNNY     44  30  59 W12       29.76F
$$

ILZ003-004-008-010-011-017-018-071900-
NORTH CENTRAL ILLINOIS

CITY           SKY/WX    TMP DP  RH WIND       PRES   REMARKS
ROCKFORD       CLOUDY    41  31  67 W13       29.75F
6HR MIN TEMP:  37; 6HR MAX TEMP:  41;

FREEPORT*      SUNNY     40  32  71 W10       29.75F
ROCHELLE*      CLOUDY    38  32  79 W17       29.76F WCI  28
DE KALB*       PTSUNNY   40  31  72 W18       29.75F
$$

ILZ005-006-012>014-019>023-071900-
NORTHEAST ILLINOIS

CITY           SKY/WX    TMP DP  RH WIND       PRES   REMARKS
CHICAGO-OHARE  CLOUDY    42  30  62 SW17G28   29.74F
6HR MIN TEMP:  38; 6HR MAX TEMP:  42;

CHICAGO-MIDWAY PTSUNNY   45  29  53 SW15G28   29.76F
6HR MIN TEMP:  38; 6HR MAX TEMP:  45;

AURORA         CLOUDY    42  32  67 W14G24    29.76F
6HR MIN TEMP:  36; 6HR MAX TEMP:  43;

LANSING*       CLOUDY    44  31  61 SW23      29.79F
WAUKEGAN       MOSUNNY   41  31  67 SW17G24   29.71F
6HR MIN TEMP:  37; 6HR MAX TEMP:  42;

DUPAGE AIRPORT MOSUNNY   41  29  62 SW21G26   29.75F
6HR MIN TEMP:  35; 6HR MAX TEMP:  42;

KANKAKEE*      MOSUNNY   46  32  57 SW21G26   29.82F
WHEELING       CLOUDY    42  29  59 SW12G24   29.74F
6HR MIN TEMP:  38; 6HR MAX TEMP:  43;

MORRIS*          N/A     44  32  61 W14       29.75F
ROMEOVILLE*    MOSUNNY   43  31  63 SW15G24   29.77F
NORTHERLY ISL    N/A     44  28  53 SW9         N/A
$$

LMZ740>746-071900-
SOUTHERN LAKE MICHIGAN

STATION/POSITION SKY/WX   TEMP    WIND        PRES    VSBY  WAVE
                          AIR SEA DIR/SP/G                  HT/PER
                          (F)     (DEG/KT/KT) (MB)    (MI)  (FT/S)
HARRISON CRIB              43     240/ 17/ 22   N/A
BURNHAM HARBOR             44     210/  9/ 19   N/A
CALUMET HARBOR             43     220/ 11/ 19 1008.2
BURNS HARBOR               43     220/ 17/ 28 1010.2
MICHIGAN CITY              42     200/ 23/ 27   N/A
$$

ILZ025>027-034>036-040-047-049-050-058-095>099-071900-
WEST-CENTRAL ILLINOIS

CITY           SKY/WX    TMP DP  RH WIND       PRES   REMARKS
QUINCY         CLOUDY    44  30  57 W16       29.90S
GALESBURG*     CLOUDY    43  32  65 W15       29.83F
MACOMB*        MOSUNNY   44  33  66 W16       29.88S
JACKSONVILLE*  PTSUNNY   48  33  55 SW14      29.89F
PITTSFIELD*    CLOUDY    46  31  56 SW14      29.90F
$$

ILZ028>032-037-038-041>044-048-051>054-059>061-071900-
CENTRAL ILLINOIS

CITY           SKY/WX    TMP DP  RH WIND       PRES   REMARKS
PONTIAC        SUNNY     45  34  66 SW22G28   29.81F
BLOOMINGTON    SUNNY     46  33  60 W21G30    29.83F
DECATUR        SUNNY     49  31  49 SW22G31   29.87F
PEORIA         MOSUNNY   45  29  53 SW15      29.83F
6HR MIN TEMP:  36; 6HR MAX TEMP:  47;

LACON*         MOSUNNY   44  29  57 W12G17    29.81S
LINCOLN*       SUNNY     49  32  52 SW8G16    29.85F
SPRINGFIELD    MOSUNNY   48  33  56 W24       29.88F
6HR MIN TEMP:  38; 6HR MAX TEMP:  50;

TAYLORVILLE    SUNNY     46  32  57 SW20G28   29.89F
$$

ILZ033-039-045-046-055>057-062-063-071900-
EAST-CENTRAL ILLINOIS

CITY           SKY/WX    TMP DP  RH WIND       PRES   REMARKS
CHAMPAIGN      SUNNY     47  32  56 SW24      29.86F
RANTOUL*       SUNNY     47  35  64 SW18      29.84F
MATTOON        SUNNY     50  30  46 S17G24    29.88F
PARIS*         CLOUDY    49  35  58 SW17G25   29.90F
$$

ILZ079-100>102-071900-
SOUTHWEST ILLINOIS

CITY           SKY/WX    TMP DP  RH WIND       PRES   REMARKS
ALTON          PTSUNNY   50  30  46 SW14G21   29.93F
BELLEVILLE     SUNNY     56  27  32 SW20G28   29.91F
CAHOKIA*       SUNNY     54  26  34 W17G31    29.93F
SPARTA*        SUNNY     54  28  37 SW15      29.97F
$$

ILZ064>066-069>071-074>076-080>082-084>086-088>090-092>094-071900-
SOUTH-CENTRAL ILLINOIS

CITY           SKY/WX    TMP DP  RH WIND       PRES   REMARKS
CARBONDALE     MOSUNNY   53  27  36 SW21      29.99F
6HR MIN TEMP:  33; 6HR MAX TEMP:  53;

CAIRO*         MOSUNNY   53  34  49 SW15G24   30.06F
EFFINGHAM*     SUNNY     53  32  45 S20G28    29.93F
MARION         PTSUNNY   54  30  40 SW18G25   30.00F
MT. VERNON     SUNNY     54  34  47 S18G28    29.97F
CENTRALIA*     SUNNY     53  33  46 SW21      29.95F
SALEM*         SUNNY     54  30  39 SW16G24   29.94F
METROPOLIS*    MOSUNNY   55  30  38 SW17      30.06F
$$

ILZ067-068-072-073-078-083-087-091-071900-
SOUTHEAST ILLINOIS

CITY           SKY/WX    TMP DP  RH WIND       PRES   REMARKS
LAWRENCEVILLE  SUNNY     54  32  43 SW26G37   29.97F
FLORA*         SUNNY     54  30  40 SW20      29.95F
FAIRFIELD*     SUNNY     53  31  44 S17G28    29.97F
HARRISBURG*    MOSUNNY   53  31  43 SW21G28   30.02F
ROBINSON*      SUNNY     51  31  47 SW22      29.97F
CARMI*         SUNNY     52  31  45 SW20G30   30.01F
$$

ABBREVIATIONS USED IN REMARKS
   TC - TEMPERATURE IN CELSIUS
  WCI - WIND CHILL INDEX
   HX - HEAT INDEX
  VSB - VISIBILITY
$$





USA.gov is the U.S. government's official web portal to all federal, state and local government web resources and services.